Regional Weather Roundup
Issued by NWS Newport/Morehead, NC

Current Version | Previous Version | Text Only | Print | Product List | Glossary Off
Versions: 1 2 3 4 5 6 7 8 9 10 11 12 13 14 15 16 17 18 19 20 21 22 23 24 25 26 27 28 29 30 31 32 33 34 35 36 37 38 39 40 41 42 43 44 45 46 47 48 49 50
000 ASUS42 KMHX 280325 RWRMHX WEATHER ROUNDUP FOR EASTERN NORTH CAROLINA NATIONAL WEATHER SERVICE NEWPORT/MOREHEAD CITY NC 1100 PM EDT MON MAR 27 2017 NOTE: "FAIR" INDICATES FEW OR NO CLOUDS BELOW 12,000 FEET WITH NO SIGNIFICANT WEATHER AND/OR OBSTRUCTIONS TO VISIBILITY NCZ015>017-031-032-045>047-102-103-280400- NORTH COAST CITY SKY/WX TMP DP RH WIND PRES REMARKS EDENTON NOT AVBL ELIZABETH CITY PTCLDY 64 54 69 S12 30.00F KITTY HAWK NOT AVBL MANTEO CLEAR 60 57 89 S8 30.03F $$ NCZ045>047-081-094-103-104-280400- CENTRAL COAST CITY SKY/WX TMP DP RH WIND PRES REMARKS FRISCO CLEAR 69 58 67 SW9 30.04F $$ NCZ095-097-098-100-101-280400- SOUTHERN COAST CITY SKY/WX TMP DP RH WIND PRES REMARKS BEAUFORT CLEAR 65 61 87 S7 30.05S CEDAR ISLAND NOT AVBL JACKSONVILLE MOCLDY 64 57 78 S6 30.04S PINEY ISLAND CLEAR N/A N/A N/A S5 30.04S WILMINGTON CLEAR 63 57 81 S6 30.04F $$ NCZ011>013-027>030-043-044-078>080-089-090>093-098-280400- COASTAL PLAIN CITY SKY/WX TMP DP RH WIND PRES REMARKS AHOSKIE N/A 63 55 74 S8 30.00R CLINTON CLOUDY 66 57 74 S6 30.03S ELIZABETHTOWN PTCLDY 65 56 74 S7 30.03F GOLDSBORO CLOUDY 67 57 68 S9 30.00S GREENVILLE MOCLDY 64 55 72 SW8 30.04R HAVELOCK CLEAR 60 54 80 S6 30.05S KENANSVILLE MOCLDY 64 55 72 S5 30.03F KINSTON MOCLDY 65 55 69 S8 30.03S NEW BERN CLEAR 63 57 81 S8 30.04F RICHLANDS PTCLDY 61 56 83 S7 30.05S ROCKY MOUNT PTCLDY 67 56 67 S9 30.01S WASHINGTON CLEAR 64 55 70 S3 30.03R WHITEVILLE MOCLDY 64 56 75 S3 30.03F $$ AMZ130-135-150-152-154-156-158-170-250-252-270-ANZ085-086-088-633-658-670-280400- MARINE OBSERVATIONS STATION/POSITION TIME TEMP WIND PRES WAVE SWELL AIR SEA DIR/SP/G HT/PER HT/PER (UTC) (F) (DEG/KT/KT) (MB) (FT/S) (FT/S) CHESAPEAKE LIGHT NOT AVBL 64 E VA BEACH 0250 55 49 190/ 10/ 10 1016.5 4/ 8 3/ 8 DUCK 0300 64 49 190/ 13/ 17 1015.6 2 E DUCK 0300 51 N/A 3/ 8 2/11 OREGON INLET 0300 57 62 190/ 8/ 9 1016.9 13E OREGON INLT 0248 54 N/A 4/11 3/11 HATTERAS CG 0300 67 62 210/ 6/ 9 1017.1 DIAMOND BUOY 0250 72 74 200/ 14/ 17 1017.4 4/ 9 3/ 9 CAPE LOOKOUT 0300 65 170/ 6/ 7 1017.3 BEAUFORT LAB 0300 64 60 180/ 4/ 5 1016.6 30 SE NEW RVR IN 0308 67 190/ 6/ 8 1017.6 30 SE NEW RVR IN 0313 65 N/A 4/11 2/11 27 SE WRIGHTSVLE 0308 69 67 200/ 8/ 14 1016.8 5 SE WRIGHTSVLE 0308 63 61 180/ 6/ 8 1017.4 225 S CAPE HAT 0250 68 72 100/ 6/ 8 1019.2 6/10 7/10 41 SE CHARLESTON 0250 72 71 170/ 10/ 12 1017.2 5/11 5/11 $$

USA.gov is the U.S. government's official web portal to all federal, state and local government web resources and services.